Weather History for KCRG - September, 2013

Change the Weather History Date:

Saturday, September 28, 2013

  Actual Average Record
Temperature  
Mean Temperature 76 °F -  
Max Temperature 79 °F 81 °F 91 °F (2003)
Min Temperature 73 °F 68 °F 62 °F (2008)
Cooling Degree Days 10    
Growing Degree Days 26 (Base 50)    
Moisture  
Dew Point 67 °F    
Average Humidity 77    
Maximum Humidity 88    
Minimum Humidity 66    
Precipitation  
Precipitation 0.11 in - - ()
Sea Level Pressure  
Sea Level Pressure 30.04 in    
Wind  
Wind Speed 10 mph (NE)    
Max Wind Speed 17 mph    
Max Gust Speed 25 mph    
Visibility 9 miles    
Events Rain    
Averages and records for this station are not official NWS values.
T = Trace of Precipitation, MM = Missing Value Source: NWS Daily Summary

Daily Weather History Graph

Daily Weather History Graph

Search for Another Location

Airport or City:

Trip Planner

Search our weather history database for the weather conditions in past years. The results will help you decide how hot, cold, wet, or windy it might be!

Date:

Astronomy

Sep. 28, 2013 Rise Set
Actual Time 7:17 AM EDT 7:14 PM EDT
Civil Twilight 6:53 AM EDT 7:38 PM EDT
Nautical Twilight 6:26 AM EDT 8:06 PM EDT
Astronomical Twilight 5:58 AM EDT 8:34 PM EDT
Moon 1:25 AM EDT (9/28) 3:12 PM EDT (9/28)
Length of Visible Light 12h 44m
Length of Day
11h 56m
Last Quarter, 36% of the Moon is Illuminated
Sep 28
Last Quarter
Oct 4
New
Oct 11
First Quarter
Oct 18
Full
Oct 26
Last Quarter

Hourly Weather History & Observations

Time (EDT) Temp. Dew Point Humidity Pressure Visibility Wind Dir Wind Speed Gust Speed Precip Events Conditions
12:53 AM 73.0 °F 69.1 °F 87% 30.02 in 3.0 mi ENE 10.4 mph - 0.07 in Rain Light Rain
1:10 AM 73.4 °F 69.8 °F 88% 30.01 in 7.0 mi ENE 8.1 mph 17.3 mph 0.01 in Rain Light Rain
1:23 AM 73.4 °F 69.8 °F 88% 30.02 in 5.0 mi ENE 10.4 mph - 0.02 in Rain Rain
1:38 AM 73.4 °F 69.8 °F 88% 30.01 in 9.0 mi NE 9.2 mph 18.4 mph 0.02 in Rain Light Rain
1:53 AM 73.0 °F 69.1 °F 87% 30.01 in 10.0 mi NE 10.4 mph - 0.02 in   Overcast
2:53 AM 73.9 °F 69.1 °F 85% 29.99 in 10.0 mi NE 11.5 mph 17.3 mph N/A   Overcast
3:02 AM 73.4 °F 69.8 °F 88% 29.99 in 10.0 mi NE 12.7 mph - N/A   Overcast
3:12 AM 73.4 °F 69.8 °F 88% 29.99 in 10.0 mi NE 11.5 mph - N/A   Overcast
3:53 AM 73.9 °F 69.1 °F 85% 29.99 in 10.0 mi NE 9.2 mph - N/A   Mostly Cloudy
4:03 AM 75.2 °F 69.8 °F 83% 29.99 in 10.0 mi NE 8.1 mph - N/A   Mostly Cloudy
4:39 AM 75.2 °F 69.8 °F 83% 29.99 in 10.0 mi NE 6.9 mph - N/A   Mostly Cloudy
4:53 AM 75.0 °F 69.1 °F 82% 29.99 in 10.0 mi NNE 6.9 mph - N/A   Mostly Cloudy
5:34 AM 75.2 °F 69.8 °F 83% 30.00 in 10.0 mi NNE 10.4 mph - N/A   Overcast
5:48 AM 75.2 °F 68.0 °F 78% 30.00 in 10.0 mi NNE 8.1 mph - N/A   Overcast
5:53 AM 75.0 °F 68.0 °F 79% 30.00 in 10.0 mi NE 8.1 mph - N/A   Overcast
6:53 AM 73.0 °F 68.0 °F 84% 30.03 in 4.0 mi ENE 9.2 mph - 0.01 in Rain Light Rain
7:49 AM 73.4 °F 68.0 °F 83% 30.04 in 10.0 mi NE 5.8 mph - 0.01 in   Overcast
7:53 AM 73.0 °F 66.9 °F 81% 30.04 in 10.0 mi NE 6.9 mph - 0.01 in   Overcast
8:23 AM 73.4 °F 66.2 °F 78% 30.04 in 10.0 mi NE 10.4 mph - N/A   Overcast
8:53 AM 75.0 °F 66.0 °F 73% 30.05 in 10.0 mi NE 10.4 mph - N/A   Overcast
9:53 AM 75.9 °F 64.9 °F 69% 30.07 in 10.0 mi NE 11.5 mph - N/A   Overcast
10:53 AM 75.9 °F 66.0 °F 71% 30.09 in 10.0 mi NE 9.2 mph 21.9 mph N/A   Overcast
11:18 AM 75.2 °F 66.2 °F 73% 30.09 in 10.0 mi NNE 9.2 mph - N/A   Overcast
11:36 AM 75.2 °F 66.2 °F 73% 30.09 in 10.0 mi NE 13.8 mph 20.7 mph N/A   Overcast
11:53 AM 75.9 °F 66.0 °F 71% 30.09 in 10.0 mi NNE 11.5 mph 20.7 mph N/A   Overcast
12:18 PM 77.0 °F 66.2 °F 69% 30.09 in 10.0 mi NE 16.1 mph 20.7 mph N/A   Overcast
12:53 PM 78.1 °F 66.0 °F 66% 30.08 in 10.0 mi NE 17.3 mph 25.3 mph N/A   Overcast
1:53 PM 78.1 °F 66.0 °F 66% 30.07 in 10.0 mi NNE 12.7 mph 20.7 mph N/A   Overcast
2:53 PM 75.9 °F 64.9 °F 69% 30.06 in 10.0 mi NNE 13.8 mph 20.7 mph N/A   Overcast
3:37 PM 75.2 °F 64.4 °F 69% 30.05 in 10.0 mi NE 12.7 mph 20.7 mph N/A   Overcast
3:53 PM 75.9 °F 64.9 °F 69% 30.06 in 10.0 mi NNE 12.7 mph 18.4 mph N/A   Overcast
4:53 PM 77.0 °F 66.0 °F 69% 30.04 in 10.0 mi NNE 13.8 mph - N/A   Overcast
5:53 PM 75.9 °F 66.0 °F 71% 30.05 in 10.0 mi NNE 8.1 mph - N/A   Overcast
6:53 PM 77.0 °F 64.9 °F 66% 30.05 in 10.0 mi NNE 12.7 mph - N/A   Overcast
7:53 PM 75.0 °F 64.9 °F 71% 30.06 in 10.0 mi NNE 10.4 mph - N/A   Overcast
8:53 PM 75.0 °F 64.9 °F 71% 30.05 in 10.0 mi NE 8.1 mph - N/A   Overcast
9:53 PM 75.0 °F 66.0 °F 73% 30.06 in 10.0 mi NE 9.2 mph - N/A   Mostly Cloudy
10:53 PM 75.9 °F 66.9 °F 74% 30.05 in 10.0 mi NE 8.1 mph - N/A   Overcast
11:53 PM 75.9 °F 66.9 °F 74% 30.03 in 10.0 mi NE 10.4 mph - N/A   Overcast